www.pogodaiklimat.ru

Погода и климат >> Архив погоды >> Нигер >> Tillabery


ПОГОДА в Tillabery

  • Прогноз погоды в Tillabery
  • Монитор погоды в Tillabery
  • Климат города

АРХИВ ПОГОДЫ в Tillabery

Время (UTC), дата Ветер
(напр.,м/с)
 
Видим.   Явления Облачность Т
(С)
Тd
(С)
f
(%)
Тe
(С)
Тes
(С)
Комфортность P
(гПа)
Po
(гПа)
Тmin
(С)
Tmax
(С)
R
(мм)
R24
(мм)
S
(см)
03 8.08 штиль 0 10 км 9/0
[Cs]
+25.0 +23.7 93 +34 +34 очень
душно
1011.5 988.0
06 8.08 штиль 0 10 км 9/0
[Ac trans Ci sp]
+24.8 +23.4 92 +33 +34 очень
душно
1012.3 988.8 +24.7
09 8.08 З 6 10 км 9/4 1000 м
[Sc Ac lent Ci sp]
+28.5 +23.5 74 +39 +40 очень
душно
1012.9 989.5
12 8.08 З 6 10 км в посл. час дождь 9/6 1000 м
[Sc Ac As Ci sp]
+26.0 +23.4 86 +35 +37 очень
душно
1013.6 989.5 1
15 8.08 ЮЗ 4 10 км 9/3 1200 м
[Cu med, cong Ac lent Ci sp]
+30.0 +22.4 64 +39 +42 очень
душно
1010.5 987.0
18 8.08 штиль 0 10 км 6/0
[Ci sp]
+29.5 +23.7 71 +40 +40 очень
душно
1010.2 986.9 +31.0 1
21 8.08 штиль 0 10 км 6/0
[Ci sp]
+27.4 +24.8 86 +39 +39 очень
душно
1011.1 987.6
00 9.08 штиль 0 10 км 6/0
[Ci sp]
+25.0 +24.1 95 +34 +34 очень
душно
1011.3 987.7
03 9.08 штиль 0 10 км 6/0
[Ci sp]
+26.0 +24.4 91 +36 +36 очень
душно
1011.1 987.6
06 9.08 штиль 0 10 км 9/0
[Ac As Ci sp]
+25.7 +24.0 90 +35 +35 очень
душно
1011.3 987.8 +25.5 1
09 9.08 З 6 10 км 9/0
[Ac trans Ci sp]
+29.8 +23.3 68 +40 +43 очень
душно
1013.1 989.6
12 9.08 СЗ 8 10 км 9/4 1200 м
[Cu med, cong Ac trans Ci sp]
+33.0 +23.9 59 +45 +46 опасность
перегрева
1012.5 988.9
15 9.08 З 6 10 км 9/8 1200 м
[Cu med, cong Ci sp]
+33.5 +21.7 50 +42 +42 опасность
перегрева
1008.9 985.7
18 9.08 штиль 0 10 км 9/4 1200 м
[Cu med, cong Cs]
+30.5 +23.4 66 +41 +41 опасность
перегрева
1009.4 985.9 +34.4
21 9.08 штиль 0 10 км 9/1 1200 м
[Cu med, cong Cs]
+29.0 +24.1 75 +40 +40 очень
душно
1011.3 987.9
00 10.08 штиль 0 10 км зарница 9/1 1500 м
[Cb cap Cs]
+28.0 +24.2 80 +39 +39 очень
душно
1011.4 988.1
03 10.08 штиль 0 10 км 6/0
[Ci sp]
+26.8 +24.9 89 +38 +38 очень
душно
1010.5 987.1
06 10.08 штиль 0 10 км 6/0
[Ci sp]
+26.0 +23.9 88 +36 +36 очень
душно
1011.2 987.7 +26.0
09 10.08 СВ 10 10 км 9/1 1000 м
[Sc Ac As Ci sp]
+28.5 +24.2 78 +40 +40 очень
душно
1013.4 989.9
12 10.08 штиль 0 10 км в посл. час дождь {гроза} 10/1 1000 м
[Sc Ac cast]
+24.5 +21.5 83 +31 +39 очень
душно
1013.2 989.5 4
15 10.08 штиль 0 10 км 9/1 1000 м
[Sc Ac As Ci sp]
+26.8 +21.4 72 +34 +42 очень
душно
1011.7 988.1
18 10.08 штиль 0 10 км 9/0
[Ac As Ci sp]
+26.5 +22.4 78 +35 +35 очень
душно
1010.2 986.5 +28.7 4
21 10.08 штиль 0 10 км 9/0
[Cs]
+25.0 +23.0 89 +33 +33 очень
душно
1012.0 988.4
00 11.08 штиль 0 10 км 9/0
[Cs]
+24.6 +23.4 93 +33 +33 очень
душно
1013.9 989.1
03 11.08 штиль 0 10 км 6/1 1000 м
[Sc Ci sp]
+24.0 +23.3 96 +32 +32 очень
душно
1011.9 988.2
06 11.08 штиль 0 10 км 9/1 1000 м
[Sc Ac As Ci sp]
+23.8 +22.9 95 +32 +32 очень
душно
1012.7 988.9 +23.5 4
09 11.08 Ю 4 10 км 9/4 1000 м
[Sc Ac As Ci sp]
+27.0 +23.4 81 +37 +40 очень
душно
1014.0 990.3
12 11.08 штиль 0 10 км 9/8 1000 м
[Sc Ci sp]
+30.2 +23.0 65 +40 +45 очень
душно
1013.8 990.2
15 11.08 ЮЗ 4 10 км 9/6 1000 м
[Sc Ci sp]
+32.5 +25.4 66 +47 +49 опасность
перегрева
1010.8 987.4
18 11.08 штиль 0 10 км 6/1 1200 м
[Cu med, cong Ci sp]
+31.4 +23.0 61 +42 +42 опасность
перегрева
1009.6 986.1 +33.0
21 11.08 штиль 0 10 км 6/0
[Ci sp]
+29.2 +24.7 77 +42 +42 опасность
перегрева
1011.1 987.6
00 12.08 штиль 0 10 км 6/0
[Ci sp]
+28.0 +24.9 83 +40 +40 очень
душно
1012.1 988.6
03 12.08 штиль 0 10 км 6/0
[Ci sp]
+27.0 +24.9 88 +39 +39 очень
душно
1011.6 988.2
06 12.08 штиль 0 10 км 9/1 1000 м
[Cu hum Ac lent Ci sp]
+26.5 +24.8 90 +38 +38 очень
душно
1012.0 988.5 +26.3
09 12.08 ЮЗ 2 10 км 6/0
[Ci sp]
+30.5 +24.2 69 +42 +53 опасность
перегрева
1013.1 989.7
12 12.08 СЗ 6 10 км 8/3 1200 м
[Cu med, cong Ci sp]
+33.8 +21.8 50 +42 +48 опасность
перегрева
1012.1 988.8
15 12.08 З 8 10 км 9/4 1200 м
[Cu med, cong Ci sp]
+34.8 +21.0 45 +42 +43 опасность
перегрева
1010.7 987.4
18 12.08 СЗ 4 10 км гроза без осадков 9/5 1200 м
[Cb cap Ac trans Ci sp]
+33.4 +22.5 53 +43 +43 опасность
перегрева
1009.9 986.6 +35.7
21 12.08 штиль 0 10 км {гроза} 9/0
[Cs]
+27.7 +25.4 87 +40 +40 очень
душно
1011.0 987.5
00 13.08 штиль 0 10 км {гроза} 6/0
[Ci sp]
+27.5 +26.2 93 +42 +42 опасность
перегрева
1011.0 987.7 6
03 13.08 штиль 0 10 км 6/0
[Ci sp]
+26.5 +25.1 92 +38 +38 очень
душно
1010.3 987.0
06 13.08 штиль 0 10 км 9/0
[Ac trans Ci sp]
+26.4 +24.2 88 +37 +37 очень
душно
1010.8 987.4 +26.2 6
09 13.08 штиль 0 10 км 9/0
[Ac As Ci sp]
+30.0 +24.4 72 +42 +52 опасность
перегрева
1012.2 988.7
12 13.08 ЮЗ 4 10 км гроза без осадков {дождь} 9/4 1000 м
[Cb cap Cs]
+26.5 +23.6 84 +36 +44 очень
душно
1011.6 988.0 3
15 13.08 ЮВ 6 10 км 9/1 1200 м
[Cu med, cong Cs]
+27.0 +23.2 80 +36 +40 очень
душно
1010.2 986.6
18 13.08 ЮЗ 4 10 км 9/1 1200 м
[Cu med, cong Ac As Cs]
+25.0 +22.0 83 +32 +32 очень
душно
1011.0 987.3 +31.0 3
21 13.08 З 6 10 км 9/0
[Cs]
+24.0 +21.8 88 +31 +31 очень
душно
1011.0 987.6
00 14.08 СЗ 2 10 км 9/0
[Cs]
+24.0 +21.2 84 +30 +30 очень
душно
1011.3 987.5
03 14.08 штиль 0 10 км 9/1 1000 м
[Sc Cs]
+23.0 +22.0 94 +31 +31 очень
душно
1011.3 987.5
06 14.08 штиль 0 10 км 9/1 1000 м
[Sc Cs]
+23.0 +21.7 92 +31 +31 очень
душно
1011.6 987.8 +23.0 3
09 14.08 З 4 10 км 9/1 1000 м
[Sc Cs]
+26.0 +22.1 79 +34 +40 очень
душно
1012.5 988.7
12 14.08 ЮЗ 6 10 км 9/0
[Cs]
+31.0 +21.4 57 +39 +46 очень
душно
1012.4 988.9
15 14.08 ЮЗ 4 10 км 9/4 1200 м
[Cu hum Ci sp]
+33.0 +21.4 51 +41 +45 опасность
перегрева
1011.1 987.6
18 14.08 З 2 10 км 9/1 1200 м
[Cu hum Ac trans Ci sp]
+32.0 +21.0 52 +39 +39 очень
душно
1009.9 986.4 +33.0
21 14.08 штиль 0 10 км 9/0
[Cs]
+28.5 +23.2 73 +38 +38 очень
душно
1010.8 987.3
00 15.08 штиль 0 10 км 9/0
[Cs]
+27.4 +23.7 80 +37 +37 очень
душно
1011.2 987.8

 

Местоположение метеостанции Tillabery (Нигер): широта 14.20 долгота 1.45 высота над уровнем моря 210 м.

В архиве по умолчанию представлена погода в Tillabery за последнюю неделю. Архивные данные за месяц целиком и за предыдущие месяцы, начиная с января 2011 года, Вы можете получить, выбрав интересующий диапазон дат из раскрывающегося списка и нажав кнопку "Ввод!".


*Определитесь, кто Вы:
робот инопланетянин человек

Внимание! Время в таблицах - всемирное. Для получения местного времени необходимо прибавить поправку, которая в Tillabery равна 1 ч.

Смотрите также архив погоды в соседних городах и на ближайших метеорологических станциях:

Погода в Niamey (Нигер) (112 км)
Погода в Dori (Буркина-Фасо) (161 км)
Погода в Dosso (Нигер) (231 км)
Погода в Fada N`Gourma (Буркина-Фасо) (268 км)
Погода в Gaya (Нигер) (337 км)
Погода в Kandi (Бенин) (377 км)
Погода в Ouagadougou (Буркина-Фасо) (382 км)
Погода в Dapaon (Того) (389 км)
Погода в Birni-Nkonni (Нигер) (413 км)
Погода в Tahoua (Нигер) (416 км)

Пояснения к столбцам:

Ветер - указаны скорость ветра в м/с - средняя за 10 мин, порывы в срок и между сроками (в фигурных скобках) и направление, откуда дует ветер: С - северный, СВ - северо-восточный, В - восточный, ЮВ - юго-восточный, Ю - южный, ЮЗ - юго-западный, З - западный, СЗ - северо-западный.
Видимость - горизонтальная дальность видимости в метрах или километрах. При видимости от 1 до 10 км при отсутствии осадков обычно наблюдается дымка, при ухудшении видимости до 1 км и менее - туман. В сухую погоду видимость может ухудшаться дымом, пылью или мглою.
Явления - указаны атмосферные явления, наблюдавшиеся в срок или в последний час перед сроком; фигурными скобками обозначены явления, наблюдавшиеся между сроками (за 1-3 часа до срока); квадратными скобками обозначены град или гололедные отложения с указанием их диаметра в мм.
Облачность - указаны через наклонную черту общая и нижняя облачность в баллах и высота нижней границы облаков в метрах; квадратными скобками обозначены формы облаков: Ci - перистые, Cs - перисто-слоистые, Cc - перисто-кучевые, Ac - высококучевые, As - высокослоистые, Sc - слоисто-кучевые, Ns - слоисто-дождевые, Cu - кучевые, Cb - кучево-дождевые. Подробнее классификацию облаков см. в Атласе облаков (PDF).
T - Температура воздуха - температура, измеренная на высоте 2 м над землей.
Td - Температура точки росы - температура, при понижении до которой содержащийся в воздухе водяной пар достигнет насыщения.
f - Относительная влажность воздуха - влажноcть воздуха, измеренная на высоте 2 м над землей.
Te - Эффективная температура - температура, которую ощущает одетый по сезону человек в тени. Характеристика душности погоды. При расчете учитывается влияние влажности воздуха и скорости ветра на теплоощущения человека.
Tes - Эффективная температура на солнце - температура, которую ощущает человек, с поправкой на солнечный нагрев. Характеристика знойности погоды. Зависит от высоты солнца над горизонтом, облачности и скорости ветра. Ночью, в пасмурную погоду, а также при ветре 12 м/с и более поправка равна нулю.
P - Атмосферное давление - приведенное к уровню моря атмосферное давление.
Po - Атмосферное давление - измеренное на уровне метеостанции атмосферное давление.
Tmin - Минимальная температура - минимум температуры воздуха на высоте 2 м над землей.
Tmax - Максимальная температура - максимум температуры воздуха на высоте 2 м над землей.
R - Количество осадков - Количество выпавших осадков за период времени, мм. При наведении курсора мыши на число - период времени, за который выпало указанное количество осадков.
R24 - Количество осадков - Количество выпавших осадков за 24 часа, мм.
S - Снежный покров - Высота снежного покрова, см. При наведении курсора мыши на число - состояние снежного покрова и степень покрытия местности в баллах.